Location: Bremen
(53.0793°N, 8.8017°E)
Time: 23:39:31
(UTC+01:00)

Explorer 7 - Pass Details

Date: 30 November 2021
Orbit: 483 x 674 km, 50.3° (Epoch: 17 January)

Event Time Altitude Azimuth Distance (km) Brightness Sun altitude
Rises 10:57:02 0° 269° (W) 2,657 10.1 13.4°
Reaches altitude 10° 10:59:19 10° 265° (W) 1,740 9.3 13.5°
Maximum altitude 11:03:09 54° 188° (S) 612 7.9 13.7°
Drops below altitude 10° 11:06:50 10° 111° (ESE) 1,676 9.9 13.8°
Sets 11:09:00 0° 106° (ESE) 2,547 10.7 13.9°
